Regional Weather Roundup
Issued by NWS

Home | Current Version | Previous Version | Text Only | Print | Product List | Glossary Off
Versions: 1 2 3 4 5 6 7 8 9 10 11 12 13 14 15 16 17 18 19 20 21 22 23 24 25 26 27 28 29 30 31 32 33 34 35 36 37 38 39 40 41 42 43 44 45 46 47 48 49 50

000
ASUS44 KMEG 220900
RWRTN
TENNESSEE HOURLY STATE WEATHER ROUNDUP
NATIONAL WEATHER SERVICE MEMPHIS TN
300 AM CST WED FEB 22 2017

TNZ002-004-019-021-049-052-054-088>092-221000-
WEST TENNESSEE

CITY           SKY/WX    TMP DP  RH WIND       PRES   REMARKS
MEMPHIS INTL   CLOUDY    60  58  92 SE5       29.86R
NWS MEMPHIS      N/A     59 N/A N/A MISG        N/A
JACKSON        CLOUDY    57  57 100 CALM      29.86R
UNION CITY     CLEAR    N/A N/A N/A CALM      29.86F
PARIS          CLOUDY    55  54  94 N7        29.89R
$$

TNZ008-025-027-028-033-062-065-066-221000-
NORTH MIDDLE TENNESSEE

CITY           SKY/WX    TMP DP  RH WIND       PRES   REMARKS
NASHVILLE      CLOUDY    57  55  93 NE3       29.90F FOG
CLARKSVILLE    CLOUDY    58  54  86 SE6       29.88F
SMYRNA         CLOUDY    55  54  96 CALM      29.91F FOG
CROSSVILLE     CLOUDY    56  52  86 CALM      29.93F
$$

TNZ061-075-076-078-094-096-097-221000-
SOUTH MIDDLE TENNESSEE

CITY           SKY/WX    TMP DP  RH WIND       PRES   REMARKS
TULLAHOMA      CLOUDY    57  55  94 CALM      29.90S
WINCHESTER     CLOUDY    57  55  94 SE3       29.89S
MCMINNVILLE    CLOUDY    61  57  88 E3        29.90S
COLUMBIA       MOCLDY   N/A N/A N/A E3        29.87S
SHELBYVILLE    CLOUDY    55  55 100 CALM      29.90S
$$

TNZ017-018-042-046-047-221000-
NORTHEAST TENNESSEE

CITY           SKY/WX    TMP DP  RH WIND       PRES   REMARKS
TRI CITIES     CLOUDY    52  44  74 CALM      29.96F
$$

TNZ012-013-036-069-073-074-221000-
CENTRAL EAST TENNESSEE

CITY           SKY/WX    TMP DP  RH WIND       PRES   REMARKS
KNOXVILLE      CLOUDY    57  52  83 N3        29.92S
OAK RIDGE      CLOUDY    56  53  90 CALM      29.94S
GATLINBURG     CLOUDY    54  46  76 SW3       29.92S
$$

TNZ083-085-099-221000-
SOUTHEAST TENNESSEE

CITY           SKY/WX    TMP DP  RH WIND       PRES   REMARKS
CHATTANOOGA    CLOUDY    57  55  93 CALM      29.91S FOG
$$

SKY/WX REPORTED AS FAIR MEANS FEW OR NO CLOUDS BELOW
12 THOUSAND FEET.





USA.gov is the U.S. government's official web portal to all federal, state and local government web resources and services.